Location: Warren
(41.8440°N, 79.1450°W)
Time: 10:50:28
(UTC-04:00)

Hubble Space Telescope - Visible Passes

Search period start: 22 July 2018 00:00
Search period end: 01 August 2018 00:00
Orbit: 537 x 541 km, 28.5° (Epoch: 21 July)

Date Brightness Start Highest point End Pass type
(mag) Time Alt. Az. Time Alt. Az. Time Alt. Az.
22 Jul 3.0 04:53:17 10° S 04:53:17 10° S 04:53:20 10° S visible
30 Jul 3.1 22:16:03 10° SSW 22:16:15 10° SSW 22:16:15 10° SSW visible
31 Jul 2.9 22:05:22 10° SSW 22:06:37 12° S 22:06:37 12° S visible
